Starlink 35386

operational
NORAD ID: 65862 Int'l Des: 2025-223 Owner: SPXS Country: US Constellation: starlink
NOTLE

Über Starlink 35386

Beschreibung wird geladen...

Live-Position

3D-Globus wird geladen...

Nächste Überflüge

Höhenverlauf

Altitude vs Time

uPlot chart will show altitude changes over time

Zweizeiliger Elementsatz

1 65862U 25223J 25340.37186560 .00033847 00000-0 11490-2 0 9993
2 65862 53.1601 7.9536 0001322 77.8743 282.2406 15.30220440 9913
Epoch: 6. Dez. 2025 • Age: 37 hours

Aktueller Status

Höhe 485.0 km
Geschwindigkeit 7.62 km/s
Subsatellitenpunkt -30.90°S, 161.37°E
Startdatum 3. Okt. 2025
Alter 0.1 years
Typ internet

Technische Details

Klassifizierung Payload
Masse 575.00 kg
Trockenmasse 530.00 kg
Gesamtmasse 575.00 kg
Länge 0.30 m
Durchmesser 4.10 m
Spannweite 29.00 m
Form Box + pan
Hersteller SPXS
Bus-Typ Starlink V2MO
Phasenstatus In Orbit
Besitzer/Staat SPXS/US

Große Konstellationen

Loading constellations...